User: anonymous   Login
Location: Albany
(35.0000°S, 118.0000°E)
Time: 13:27:45
(UTC-04:00)
Language:

Atlas Centaur 2 - Orbit

View from above orbital plane
View from above orbital plane
View from above satellite
View from above satellite

Ground track
Ground track

The orbit data is extracted from the following two-line orbital elements,

1 00694U 63047A   15210.86782796  .00001458  00000-0  17904-3 0  9993
2 00694 030.3589 349.5536 0591585 183.3576 317.6801 14.01138913586062
Epoch (UTC): 29 July 2015 20:49:40
Eccentricity: 0.0591585
inclination: 30.3589°
perigee height: 460 km
apogee height: 1320 km
right ascension of ascending node: 349.5536°
argument of perigee: 183.3576°
revolutions per day: 14.01138913
mean anomaly at epoch: 317.6801°
orbit number at epoch: 58606

The dashed part of the orbit path shows where the satellite is in the earth's shadow,  

DLR